Dewpoint
55 54 54 55 55 55 55 55 56 56 56 56 56 56 56 56 56 56 57 57 57 58 57 57 59 60 58 56 55 58 59 60 61 62 62 62 61 61 61 59 59 59 59
57 57 57 57 57 57 56 56 56 57 57 56 56 56 55 55 55 55 56 56 57 58 59 58 59 60 61 60 59 58 58 60 60 60 61 62 62 61 61 61 60 60 60
59 59 58 58 58 57 57 57 57 57 57 57 56 56 56 54 54 54 54 55 56 57 59 59 59 59 59 61 61 61 61 59 59 59 59 61 62 62 62 61 61 61 60
58 58 58 57 57 57 58 57 57 55 53 53 52 53 54 53 52 52 53 54 55 55 55 59 59 59 58 58 59 60 61 61 61 60 60 60 60 61 62 61 61 61 61
58 58 57 55 52 53 51 50 47 47 47 47 47 47 48 48 49 48 49 51 52 54 55 55 56 58 58 57 57 57 58 60 61 61 61 61 60 60 60 61 61 61 61
45 46 44 41 41 42 40 40 39 40 40 39 38 39 39 41 43 43 48 48 50 49 46 49 52 54 56 57 58 57 57 57 58 60 61 61 61 61 60 60 60 60 62
39 39 39 38 38 38 37 38 38 39 39 39 38 38 38 38 38 38 39 37 37 38 39 40 42 47 49 53 54 57 57 57 57 57 58 60 60 61 61 61 61 60 60
36 35 36 36 36 36 36 35 35 35 35 34 33 33 32 33 35 35 32 34 34 36 38 39 39 41 42 42 43 48 51 53 53 54 55 57 58 59 59 60 61 62 61
30 30 31 30 30 30 30 30 29 30 29 30 30 30 28 27 32 32 32 32 32 31 35 34 32 33 36 38 39 40 42 50 50 51 52 53 54 54 55 56 57 60 62
29 24 24 25 25 24 24 25 23 24 25 27 28 25 30 31 30 29 28 29 28 25 24 28 27 29 32 36 40 42 48 47 49 50 51 50 51 52 54 56 58 57 58
25 22 19 19 19 20 21 21 21 22 24 27 27 26 27 29 31 26 23 23 23 22 23 25 28 29 30 32 39 40 41 44 43 44 45 46 44 45 46 48 50 53 56
21 19 17 15 15 17 18 17 19 22 26 30 27 25 25 29 26 22 21 22 23 26 27 28 30 32 33 31 33 34 36 38 37 39 40 40 40 41 44 45 45 50 52
16 16 14 13 13 15 15 16 20 23 24 26 25 22 21 23 24 21 22 24 25 28 30 28 28 23 25 26 24 27 26 31 31 33 37 38 37 37 38 38 38 40 43
12 12 12 11 10 11 11 13 17 20 19 18 20 19 20 21 21 22 23 25 25 24 21 19 22 23 22 21 23 24 23 24 30 34 35 35 33 33 35 36 36 35 41
8 8 10 9 9 9 9 11 13 12 13 14 16 18 18 20 22 22 25 24 22 19 18 19 19 20 23 22 24 25 25 29 31 30 30 30 33 34 32 34 38 40 40
7 8 7 7 7 7 8 9 10 11 11 12 14 16 18 19 19 22 23 21 20 19 18 19 20 22 24 26 24 25 25 28 27 25 26 30 31 29 30 34 35 36 37
6 6 6 7 7 7 7 8 9 9 9 13 15 16 17 18 19 19 20 20 20 20 20 21 22 26 25 23 24 25 25 26 25 25 24 25 27 28 28 31 32 33 34
6 7 7 8 8 8 9 9 9 9 10 13 15 17 17 17 19 20 20 19 20 21 21 22 24 24 23 24 25 25 24 24 24 24 25 24 25 25 27 30 32 35 37
7 8 9 9 9 9 9 9 9 9 13 15 16 17 18 19 19 19 20 21 21 22 25 25 24 23 24 26 25 22 19 20 23 24 23 24 25 26 29 30 34 35 36
9 10 10 11 11 9 9 9 10 15 17 17 19 19 19 18 18 19 20 22 24 26 26 25 23 24 25 26 23 20 19 23 24 22 22 23 24 26 27 29 34 37 37
11 11 11 11 10 10 7 12 16 18 19 20 19 19 17 19 19 19 19 22 25 27 23 23 26 27 28 22 20 20 20 21 22 23 24 26 27 28 30 29 29 31 32
11 12 11 11 10 9 10 14 18 20 20 20 19 18 17 18 17 18 21 22 23 22 21 25 27 27 22 19 18 20 22 23 22 24 24 24 25 26 27 28 28 30 30
11 11 10 10 9 10 12 15 18 21 21 19 17 17 16 16 18 22 23 23 22 22 27 24 23 23 18 18 22 24 26 24 21 22 24 25 26 28 30 30 29 28 31
10 10 10 10 10 9 11 15 19 21 19 19 17 17 17 19 22 22 21 27 28 27 23 19 20 18 19 23 27 25 22 24 26 26 26 24 29 26 29 29 30 28 30
10 10 10 10 9 8 11 16 19 20 20 19 18 18 20 21 21 21 25 28 22 18 18 19 20 20 19 20 20 21 24 23 21 22 24 24 26 29 26 27 28 27 35
10 10 9 8 7 9 13 17 19 20 20 19 20 23 21 19 20 25 25 18 18 17 23 21 19 18 18 19 20 21 24 23 22 22 21 22 23 25 23 27 29 30 28
Wind_Speed
5 5 5 7 7 7 8 10 11 11 13 15 15 16 16 18 18 16 15 19 19 22 25 27 29 31 31 32 33 32 32 32 33 33 33 34 34 34 34 34 32 31 31
5 5 7 8 8 8 9 10 12 13 14 14 16 17 18 18 18 18 16 17 20 22 25 28 29 30 33 34 34 33 33 34 35 35 36 35 37 37 37 36 36 36 35
5 6 7 8 8 9 11 11 12 12 13 13 13 15 18 19 17 19 18 18 18 17 23 26 27 28 29 32 34 35 34 34 35 36 37 38 38 40 40 40 39 39 38
4 6 7 8 10 9 9 9 10 11 12 13 15 15 16 17 19 20 20 20 15 15 15 18 23 25 26 28 31 34 36 35 36 37 39 40 40 41 41 43 43 42 42
7 5 7 9 8 7 8 10 11 12 12 13 13 13 14 16 17 18 19 19 18 16 14 15 19 22 25 28 29 30 32 34 34 36 39 40 42 43 44 43 44 45 44
12 10 9 9 10 9 10 11 12 13 14 15 17 17 17 17 17 18 19 15 16 17 20 19 18 17 23 27 27 28 29 30 32 33 35 37 40 42 44 45 46 45 46
12 12 10 11 11 11 11 13 13 14 14 15 16 16 15 23 16 17 16 19 22 22 20 20 21 18 18 16 20 23 29 30 31 32 33 35 37 38 41 44 45 47 45
13 12 13 12 13 12 13 14 14 13 13 14 16 18 11 16 11 24 25 20 22 20 18 20 21 22 21 21 23 26 26 28 32 35 36 35 37 38 39 42 43 44 46
14 14 13 13 12 12 12 13 13 14 14 13 14 11 11 11 23 15 18 19 19 23 18 20 24 24 23 23 25 26 29 26 29 34 36 37 37 39 39 39 42 42 44
12 13 12 12 12 11 12 12 12 13 13 13 13 13 15 18 21 20 10 19 19 20 24 20 21 23 23 21 22 23 16 21 21 25 28 30 31 33 35 38 38 43 43
10 12 12 11 11 10 11 12 13 13 12 13 13 14 15 15 17 22 28 17 19 17 20 21 18 22 26 26 21 21 23 21 23 24 26 29 31 35 37 38 39 40 36
8 11 11 11 10 11 11 12 12 13 14 13 13 15 15 17 17 19 25 25 25 20 18 20 20 21 19 20 19 24 25 28 32 31 30 32 34 37 37 38 40 40 39
9 11 11 12 11 11 12 13 12 13 13 13 15 15 16 17 16 18 22 26 26 22 21 19 18 22 19 19 21 27 35 35 37 36 33 34 37 39 41 43 40 39 39
8 10 11 12 13 14 14 13 12 12 14 14 17 16 17 16 17 17 20 22 30 27 26 27 20 19 19 19 25 34 25 37 36 33 35 37 40 42 40 42 44 41 37
8 10 11 12 13 13 14 14 13 16 15 16 16 17 17 17 17 18 17 18 21 31 34 27 27 22 18 22 24 25 28 32 35 35 38 40 39 35 41 42 41 37 36
9 10 11 12 14 14 15 16 15 16 18 16 17 19 19 18 19 19 18 18 18 23 32 27 28 28 26 21 25 25 26 32 34 37 38 37 35 37 40 42 41 41 39
9 10 12 13 15 16 17 17 18 19 18 20 19 20 21 22 20 19 19 20 21 20 26 30 27 26 30 29 26 23 26 24 25 31 37 39 38 40 41 42 42 41 40
10 11 12 14 16 17 17 19 19 18 20 21 21 22 22 20 22 20 20 22 22 22 26 31 28 28 30 27 28 27 24 23 26 32 36 38 41 40 38 40 39 40 36
11 12 13 15 17 18 18 19 20 20 22 22 22 22 23 22 22 20 21 21 23 22 22 26 31 27 27 25 26 23 26 28 23 27 33 36 36 39 40 42 40 37 36
12 13 15 16 18 19 18 19 18 21 22 22 22 22 22 21 22 22 24 24 22 23 25 26 27 28 26 26 22 27 30 24 26 25 27 32 37 37 39 40 34 34 34
13 15 17 18 18 17 17 18 20 22 23 24 23 23 21 22 27 28 23 22 25 25 26 27 28 25 21 26 26 27 29 30 29 23 26 25 24 24 24 29 29 30 33
16 16 18 18 19 18 22 24 22 21 23 24 24 22 22 24 23 29 29 34 32 30 30 28 31 22 24 27 29 26 28 30 37 19 25 30 23 27 26 23 30 32 34
17 18 18 19 20 20 23 24 25 21 23 22 24 23 23 20 25 24 30 33 30 34 36 29 30 25 30 30 30 32 29 28 32 30 26 32 24 26 22 21 27 35 34
17 18 19 19 20 19 24 24 24 21 21 23 23 24 25 25 26 30 28 27 26 25 28 26 28 28 28 29 30 28 31 32 28 26 21 30 20 26 22 21 26 33 32
18 18 19 20 21 20 23 22 23 21 22 23 22 22 26 27 30 35 30 28 30 29 27 32 34 38 39 37 34 27 25 26 29 25 18 25 24 21 24 25 22 29 18
18 18 20 19 22 20 20 22 23 20 22 23 22 23 27 31 35 36 32 31 30 30 27 29 26 25 26 26 31 24 23 26 28 27 19 24 25 22 20 15 14 19 18
Wind_Direction
271 286 289 290 287 284 284 281 282 286 284 284 285 283 280 279 278 276 274 274 256 243 250 259 263 262 258 255 254 252 250 249 249 248 245 239 236 234 233 234 237 238 237
291 301 291 277 284 289 288 291 296 295 289 290 293 294 292 289 283 280 277 273 265 250 246 253 261 264 264 261 258 256 253 251 249 249 249 248 241 238 236 235 234 234 235
276 289 296 301 301 306 308 302 303 313 317 313 308 309 300 296 295 293 290 286 288 272 247 250 259 264 267 270 268 263 258 254 252 251 251 250 249 244 239 237 235 234 234
317 310 309 322 341 326 334 333 313 307 314 317 315 323 310 303 299 297 294 289 278 282 290 265 258 262 268 271 272 273 270 263 257 252 250 248 248 249 245 241 238 235 234
19 358 20 16 351 352 345 352 338 329 321 315 309 300 300 301 300 294 296 293 288 280 269 275 272 253 249 259 268 271 273 275 274 268 262 256 251 248 248 246 243 241 238
40 39 37 25 7 2 356 347 337 334 326 321 318 318 307 304 295 295 282 306 313 321 316 303 288 269 253 249 253 264 271 272 273 275 274 267 261 257 253 250 248 244 241
41 34 23 15 6 358 355 349 342 337 330 330 322 315 306 285 304 314 346 326 316 305 301 311 304 302 291 286 266 265 266 272 277 276 277 277 274 268 261 256 253 250 245
37 32 22 11 6 354 354 351 347 339 328 336 323 318 322 306 326 336 323 310 308 305 316 317 318 323 325 319 307 306 290 281 278 276 278 277 277 278 278 272 260 255 252
36 28 20 9 2 355 353 350 345 341 328 328 339 325 323 317 317 307 310 293 327 314 313 321 312 308 309 304 305 302 298 311 305 294 292 287 287 286 284 278 280 268 254
38 23 15 8 1 354 355 346 347 338 334 324 328 324 313 307 308 310 294 311 296 320 307 301 306 299 293 291 296 306 332 337 329 320 314 307 306 298 292 289 284 276 284
33 21 7 6 2 0 351 343 340 336 331 329 326 318 308 304 304 309 307 306 298 296 298 295 302 310 303 291 292 305 302 309 309 305 301 305 306 304 300 297 295 296 290
19 22 2 2 359 356 346 339 335 332 326 319 316 313 313 310 309 307 301 303 300 299 296 303 302 300 300 310 309 316 318 324 314 306 304 304 307 303 303 308 305 301 297
8 6 358 354 352 345 339 336 337 317 320 313 307 306 305 302 302 300 298 299 299 302 298 300 296 305 298 311 313 324 315 306 307 302 303 305 304 304 301 300 297 295 294
358 354 351 348 344 339 333 330 320 317 305 312 303 306 301 302 301 300 297 306 304 303 301 300 299 312 310 308 322 305 313 302 291 299 299 300 299 295 294 297 294 293 290
350 349 345 339 333 329 327 324 318 311 314 308 309 304 302 301 298 301 297 299 302 302 301 305 306 308 303 314 291 317 300 307 301 303 297 296 288 292 294 295 289 294 293
348 342 337 332 327 326 325 323 315 314 309 309 307 306 304 302 304 299 299 297 294 292 292 301 304 304 302 306 301 296 293 307 296 295 292 294 294 293 295 294 293 292 289
341 334 331 327 325 325 322 318 314 310 312 309 305 304 305 304 303 302 305 297 295 291 295 294 297 304 303 302 303 302 293 294 288 292 295 294 293 294 290 288 286 287 285
333 331 328 323 320 316 315 313 311 309 312 308 307 307 303 307 303 303 299 298 299 302 295 296 302 301 298 303 301 303 302 298 295 287 288 292 290 287 288 290 287 281 280
329 326 322 316 313 312 311 310 307 316 311 309 308 308 305 304 305 303 303 307 300 298 303 300 296 295 298 298 299 299 306 299 293 293 300 299 297 296 291 289 286 285 287
321 319 314 312 309 309 311 307 320 313 310 308 308 305 301 304 302 310 301 297 301 306 300 292 295 296 297 299 301 308 309 301 301 298 299 293 290 290 290 284 288 290 285
317 313 311 306 307 309 307 322 313 313 311 309 305 301 303 303 302 299 303 307 310 297 299 299 300 302 305 306 307 309 299 300 296 300 296 293 294 292 287 290 286 287 285
313 309 306 307 308 308 314 314 317 312 310 307 302 306 306 304 304 309 311 306 301 304 305 299 292 294 306 308 307 301 301 297 298 300 295 295 293 289 285 283 285 287 288
309 308 309 310 311 313 312 316 316 315 304 303 308 310 307 309 315 315 302 303 306 308 301 303 299 303 305 304 303 297 292 294 293 296 296 288 295 284 284 283 290 292 287
312 312 312 314 311 309 314 317 315 307 307 306 309 310 311 315 311 305 309 313 309 310 300 305 295 299 298 296 290 293 299 294 288 288 287 290 295 295 288 287 292 292 285
313 313 312 310 308 310 314 313 317 310 308 308 310 315 310 306 306 316 317 314 310 309 305 305 306 304 304 304 305 301 296 296 293 292 300 293 295 300 305 292 284 285 309
311 311 307 307 309 311 311 315 316 311 307 309 312 309 308 312 315 319 317 315 313 311 311 310 310 307 305 299 298 295 294 294 294 294 300 297 293 295 300 276 291 313 308